Weather in Kinel

Russia / Samara Oblast     53°13′15″N   50°38′03″E
temp.,
°C
wind,
m/s
gust,
m/s
humid.,
%
clouds,
%
prec.,
mm/h
press.,
hPa
HPBL,
m
28 september, tue
tue2801:00+5ne6976100 0.0 1016708
04:00+4ne51076100 0.0 1018657
07:00+4nne611765 0.0 1019648
10:00+7ne795816 0.0 10201036
13:00+9ne795098 0.0 10211490
16:00+10ne784168 0.0 10221804
19:00+6nne51151100 0.0 1024289
22:00+6nne51153100 0.0 1025408
29 september, wed
wed2901:00+5nne41061100 0.0 1026285
04:00+4nne4967100 0.0 1026269
07:00+3nne497145 0.0 1028254
10:00+7ne675058 0.0 10281016
13:00+10ne563955 0.0 10281670
16:00+10nne563766 0.0 10281938
19:00+6n485486 0.0 1029155
22:00+4nne37615 0.0 1030139
30 september, thu
thu3001:00+3nne33645 0.0 103050
04:00+2n33685 0.0 103129
07:00+2n22705 0.0 103228
10:00+7nne23491 0.0 1032553
13:00+10n33395 0.0 10311628
16:00+11nnw343964 0.0 10311718
19:00+7nnw22549 0.0 103115
22:00+8nw2254100 0.0 103231
1 october, fri
fri101:00+8nw2457100 0.0 1031100
04:00+7w2460100 0.0 1031117
07:00+8wsw3565100 0.0 1031152
10:00+9w3465100 0.0 1031258
13:00+11w3463100 0.0 1031714
16:00+12wnw34658 0.0 1030733
19:00+11wsw3474100 0.0 103195
22:00+11wsw2375100 0.0 103170
2 october, sat
sat201:00+10w237687 0.0 103173
04:00+8w22875 0.0 103124
07:00+7wnw22885 0.0 103220
10:00+12nw34685 0.0 1032474
13:00+16nnw34537 0.0 10321199
16:00+16nnw344913 0.0 10311361
19:00+11n22665 0.0 103219
22:00+10n22730 0.0 103312